182  
ASUS44 KLCH 280510  
RWRLCH  
REGIONAL WEATHER ROUNDUP  
NATIONAL WEATHER SERVICE LAKE CHARLES LA  
1100 PM CST SUN NOV 27 2022  
 
NOTE: "FAIR" INDICATES FEW OR NO CLOUDS BELOW 12,000 FEET WITH NO  
SIGNIFICANT WEATHER AND/OR S TO VISIBILITY
.  
 
ACROSS SOUTHEAST TEXAS  
 
CITY SKY/WX TMP DP RH WIND PRES REMARKS
 
BEAUMONT CLEAR 54 54 100 NW5 29.97R  
BEAUMONT CITY FAIR 50 49 96 CALM 29.98S  
ORANGE CLEAR 56 55 95 CALM 30.00R  
JASPER CLEAR 46 46 100 CALM 29.98R  

 
 
ACROSS CENTRAL LOUISIANA  
 
CITY SKY/WX TMP DP RH WIND PRES REMARKS
 
LEESVILLE CLEAR 49 49 99 CALM 29.95S  
FULLERTON FAIR 49 46 90 CALM 29.94R  
ALEXANDRIA INT CLEAR 50 48 93 CALM 29.95R  
ESLER FIELD CLEAR 47 45 93 W3 29.96R FOG  
DERIDDER FAIR 48 48 100 CALM 29.99R  
OAKDALE CLEAR 48 45 87 CALM 29.96S  
OPELOUSAS FAIR 54 54 100 CALM 29.97R FOG  

 
 
ACROSS SOUTHWEST AND SOUTH CENTRAL LOUISIANA  
 
CITY SKY/WX TMP DP RH WIND PRES REMARKS
 
DEQUINCY NOT AVBL  
SULPHUR FOG 53 53 100 NW3 29.98R VSB 1/2  
LAKE CHARLES CLEAR 56 55 97 NW3 29.96S FOG  
CHENNAULT INT CLEAR 56 55 94 NW6 29.97R  
JENNINGS MOCLDY 58 58 100 CALM 29.97S  
LAFAYETTE CLEAR 59 58 96 SW3 29.97R  
NEW IBERIA FOG 58 56 93 CALM 29.96S VSB 1/2  
ABBEVILLE MOCLDY 62 58 89 CALM 29.97S  
PATTERSON PTCLDY 58 58 100 S3 29.97S  
SALT POINT N/A 61 61 100 CALM 29.96R  

 
 
SELECTED SITES ACROSS THE REGION  
 
CITY SKY/WX TMP DP RH WIND PRES REMARKS
 
HOUSTON BUSH PTCLDY 54 48 80 NW3 29.99R  
HOUSTON HOBBY CLEAR 59 49 69 N7 29.98R  
GALVESTON MOCLDY 83 62 49 NW9 29.97R  
COLLEGE STAT CLEAR 51 46 83 CALM 30.00R  
CONROE CLEAR 45 45 100 MISG 30.00R  
HUNTSVILLE CLEAR 52 47 83 CALM 30.00R  
LUFKIN CLEAR 47 45 93 CALM 29.99R  
SHREVEPORT CLEAR 48 45 87 W3 29.96R  
MONROE CLEAR 47 45 93 CALM 29.97R  
NATCHEZ MS CLEAR 47 46 97 E6 29.97R  
BATON ROUGE PTCLDY 61 60 97 SW7 29.96R  
N.O. INTL ARPT CLEAR 61 58 90 S5 29.97R  
SLIDELL MOCLDY 62 58 86 S3 29.96R  

 
 
MARINE REPORTS  
 
STATION/POSITION TIME SKY/WX TEMP WIND PRES VSBY
 
AIR SEA DIR/SP/G  
(UTC) (F) (DEG/KT/KT) (MB) (MI)  
BUOY 30 S HIGH I NOT AVBL  
SEA RIM ST PARK 0500 58 330/ 5/ 5 1014.7S  
PORT ARTHUR 0424 63 60 320/ 4/ 5 1014.6  
TEXAS POINT 0424 60 60 310/ 9/ 10 1012.6  
CALCASIEU PASS 0424 62 59 240/ 6/ 6 1014.8  
LK CHARLES BEACH 0424 61 65 1014.8  
MARSH ISLAND NOT AVBL  
FRESH WATER LOCK NOT AVBL  
AMERADA PASS 0424 68 64 200/ 4/ 6 1014.9  

 
 
 
CLICK HERE TO GO TO PREVIOUS BULLETINS.

The Nexlab LA Page
The Nexlab TX Page Main Text Page